   Fitzsimmons, D. Young, B. Stalder. Measurers L. Denneau, A. Heinze, J.
   Tonry. 0.5-m f/2.0 Schmidt + CCD.
(W05) Tree Gate Farm Observatory, Starkville  (N33.347635 W88.732810).
(W42) Mind's Eye Observatory, Vero Beach  (N27.764564 W80.534290)  US/Florida.

Orbital elements:  C44QRV1
   Perihelion 2025 Mar 15.36614 +/- 0.00125 TT =  8:47:14 (JD 2460749.86614)
Epoch 2025 Apr 16.0 TT = JDT 2460781.5   Earth MOID: 0.0052   Ma: 0.0672
M  12.03554838 +/- 0.0035           (J2000 ecliptic)             AutoNEOCP
n   0.38046408 +/- 9.83e-5          Peri.  137.61971 +/- 0.00054
a   1.88622546 +/- 0.000325         Node    27.76476 +/- 0.000037
e   0.5074135 +/- 8.92e-5           Incl.    4.90872 +/- 0.0006
P   2.591/946.195d         H 25.81  G  0.15   U  6.5
q 0.92912913 +/- 8.41e-6    Q 2.84332178 +/- 0.000658
From 95 observations 2025 Apr. 15-16 (31.5 hr); mean residual 0".81
Residuals in arcseconds: 
250415 703  .91-  .12+    250415 T08  .17-  .09-    250415 K74  .21-  .35+    
250415 703  .69-  .78+    250415 T08  .05+  .05+    250415 K35  .82-  1.0+    
250415 703  1.9-  .44+    250415 T08  .07+  .56-    250415 G33  .13+  .23-    
250415 703  1.3-  .55+    250415 T08  1.5+  1.5-    250415 G33  .15+  .03+    
250415 W05  1.3+  1.1-    250415 T08  .37-  .55+    250415 G33  .44+  .20-    
250415 W05  1.3+  1.2-    250415 T08  .74-  .84+    250415 G33  .20+  .11-    
250415 W05  1.1+  .47-    250415 F52  .22-  .39+    250415 G33  .44+  .20-    
250415 703  .06-  .37+    250415 F52  .33-  .51+    250415 G33  .41+  .18-    
250415 703  .33-  1.3+    250415 F52  .12-  .31+    250416 W42  .03-  .05+    
250415 703  .98-  1.4+    250415 F52  .38-  .65+    250416 W42  .83-  .81+    
250415 703  .61+  .98-    250415 Q10  .42-  .00     250416 W42  .76+  1.1-    
250415 W05  1.6+  1.7-    250415 Q10  .90-  .91+    250416 W05  .08+  .36-    
250415 W05  .06+  .14+    250415 Q10  .30-  .77+    250416 W05  .45-  .71+    
250415 W05  .94+  .69-    250415 900  .04-  .25+    250416 W05  .28+  .16-    
250415 W05  .68+  .42-    250415 900  .12-  .21-    250416 W05  .36-  .27+    
250415 W05  .94+  .65-    250415 900  .11+  .11+    250416 H21  .07+  .16-    
250415 W05  1.4+  .89-    250415 C82  2.8+  2.0-    250416 H21  .10+  .05-    
250415 W05  .90+  .53-    250415 C82  .27-  1.8-    250416 H21  .07-  .19-    
250415 W05  1.3+  .98-    250415 C82  1.6+  2.2-    250416 H21  .00   .14-    
250415 W05  .09-  .39-    250415 C82  1.5+  1.8-    250416 W05  .12+  .12-    
250415 I52  .24-  .58-    250415 C82  1.9+  1.8-    250416 W05  .14+  .27-    
250415 I52  .29-  1.4-    250415 C82  2.4+  1.1-    250416 703  .07-  .91-    
250415 I52  .04-  .57-    250415 L47  .49-  1.3+    250416 703  .48-  .01-    
250415 I52  .01+  .94-    250415 L47  .32-  .23+    250416 703  .09-  .36-    
250415 718  .61-  .95+    250415 L47  1.1-  .71+    250416 703  .11+  .57-    
250415 718  .47+  .44-    250415 L47  .71-  .47+    250416 Q06  .15+  .32+    
250415 718  .21-  .85+    250415 L47  .26+  .22-    250416 Q06  .10+  .18-    
250415 703  .29-  .33-    250415 K74  .41-  .47+    250416 Q06  .06+  .28-    
250415 703  .81-  .21+    250415 K74  .30-  .25+    250416 900  .32-  .38+    
250415 703  .89-  2.0+    250415 K35  1.1-  1.1+    250416 900  .48-  .17+    
250415 T08  .43-  .81+    250415 K35  .98-  1.5+    250416 900  .12+  .69+    
250415 T08  .00   .38-    250415 K35  1.2-  1.3+    

Ephemerides (geocentric):
Date (UTC) HH   RA             Dec           delta  r     elong  mag " sig PA
---- --------  ------------   ------------  ------ ------ -----  --- --------
2025 04 16 13  13 34 19.929   +03 46 36.27  .00941 1.0127 166.0 16.5 .093 139
2025 04 16 14  13 36 28.437   +02 51 40.17  .00956 1.0129 166.9 16.5 .090 138
2025 04 16 15  13 38 32.518   +01 58 31.66  .00973 1.0131 167.8 16.5 .087 137
2025 04 16 16  13 40 32.378   +01 07 07.72  .00989 1.0133 168.6 16.5 .083 136
2025 04 16 17  13 42 28.211   +00 17 25.28  .01006 1.0135 169.4 16.5 .080 135
2025 04 16 18  13 44 20.200   -00 30 38.80  .01023 1.0137 170.1 16.5 .076 134
2025 04 16 19  13 46 08.520   -01 17 07.69  .01040 1.0139 170.8 16.5 .072 132
2025 04 16 20  13 47 53.336   -02 02 04.57  .01058 1.0141 171.5 16.5 .068 131
2025 04 16 21  13 49 34.802   -02 45 32.59  .01075 1.0143 172.0 16.6 .064 129
2025 04 16 22  13 51 13.066   -03 27 34.88  .01093 1.0145 172.5 16.6 .060 127
2025 04 16 23  13 52 48.268   -04 08 14.51  .01112 1.0147 173.0 16.6 .056 125
2025 04 17 00  13 54 20.539   -04 47 34.48  .01130 1.0149 173.4 16.6 .052 122
2025 04 17 01  13 55 50.006   -05 25 37.76  .01148 1.0151 173.7 16.6 .048 119
2025 04 17 02  13 57 16.785   -06 02 27.20  .01167 1.0154 173.9 16.7 .044 115
2025 04 17 03  13 58 40.990   -06 38 05.59  .01186 1.0156 174.1 16.7 .040 111
2025 04 17 04  14 00 02.727   -07 12 35.65  .01205 1.0158 174.2 16.7 .037 106
2025 04 17 05  14 01 22.098   -07 45 59.97  .01225 1.0160 174.2 16.7 .034 100
2025 04 17 06  14 02 39.197   -08 18 21.09  .01244 1.0162 174.2 16.8 .032  93
2025 04 17 07  14 03 54.118   -08 49 41.46  .01264 1.0164 174.1 16.8 .030  85
2025 04 17 08  14 05 06.945   -09 20 03.40  .01283 1.0166 174.0 16.9 .028  76
2025 04 17 09  14 06 17.762   -09 49 29.19  .01303 1.0168 173.8 16.9 .028  66
2025 04 17 10  14 07 26.646   -10 18 01.00  .01323 1.0170 173.6 16.9 .028  57
2025 04 17 11  14 08 33.672   -10 45 40.91  .01343 1.0172 173.3 17.0 .029  48
2025 04 17 12  14 09 38.911   -11 12 30.92  .01363 1.0174 173.1 17.0 .030  39
2025 04 17 13  14 10 42.430   -11 38 32.96  .01384 1.0176 172.8 17.1 .032  32
2025 04 17 14  14 11 44.294   -12 03 48.87  .01404 1.0178 172.5 17.1 .035  26
2025 04 17 15  14 12 44.563   -12 28 20.41  .01424 1.0180 172.3 17.2 .037  20
2025 04 17 16  14 13 43.296   -12 52 09.27  .01445 1.0182 172.0 17.2 .040  16
2025 04 17 17  14 14 40.549   -13 15 17.08  .01466 1.0184 171.7 17.3 .044  12
2025 04 17 18  14 15 36.374   -13 37 45.38  .01487 1.0186 171.4 17.3 .047   8
2025 04 17 19  14 16 30.823   -13 59 35.66  .01507 1.0188 171.1 17.3 .050   6
2025 04 17 20  14 17 23.943   -14 20 49.34  .01528 1.0190 170.8 17.4 .054   3
2025 04 17 21  14 18 15.780   -14 41 27.77  .01549 1.0193 170.5 17.4 .057   1
2025 04 17 22  14 19 06.380   -15 01 32.27  .01570 1.0195 170.2 17.5 .061 179
2025 04 17 23  14 19 55.784   -15 21 04.08  .01592 1.0197 170.0 17.5 .064 178
2025 04 18 00  14 20 44.032   -15 40 04.39  .01613 1.0199 169.7 17.5 .068 176
2025 04 18 01  14 21 31.163   -15 58 34.34  .01634 1.0201 169.4 17.6 .071 175
2025 04 18 02  14 22 17.215   -16 16 35.02  .01656 1.0203 169.1 17.6 .075 174
2025 04 18 03  14 23 02.222   -16 34 07.48  .01677 1.0205 168.9 17.7 .078 173
2025 04 18 04  14 23 46.218   -16 51 12.72  .01698 1.0207 168.6 17.7 .081 172
2025 04 18 05  14 24 29.236   -17 07 51.71  .01720 1.0209 168.4 17.7 .085 171
2025 04 18 06  14 25 11.306   -17 24 05.35  .01742 1.0211 168.1 17.8 .088 170
2025 04 18 07  14 25 52.460   -17 39 54.53  .01763 1.0213 167.9 17.8 .091 169
2025 04 18 08  14 26 32.725   -17 55 20.10  .01785 1.0215 167.6 17.8 .094 169
2025 04 18 09  14 27 12.129   -18 10 22.85  .01807 1.0218 167.4 17.9 .098 168
2025 04 18 10  14 27 50.699   -18 25 03.56  .01829 1.0220 167.2 17.9 .101 167
2025 04 18 11  14 28 28.459   -18 39 22.98  .01850 1.0222 167.0 18.0 .104 167
2025 04 18 12  14 29 05.434   -18 53 21.82  .01872 1.0224 166.8 18.0 .107 166